Location: ?????????
(53.2086°N, 54.0693°E)
Time: 12:46:21
(UTC+00:00)

RESURS DK-1 - Pass Details

Date: 08 December 2019
Orbit: 554 x 564 km, 69.9° (Epoch: 18 January)

Event Time Altitude Azimuth Distance (km) Brightness Sun altitude
Rises 14:57:18 0° 234° (SW) 2,730 6.8 -24.2°
Reaches altitude 10° 14:59:36 10° 242° (WSW) 1,840 5.9 -24.5°
Maximum altitude 15:03:28 39° 313° (NW) 844 3.5 -25.1°
Enters shadow 15:04:04 37° 334° (NNW) 880 3.4 -25.2°
